Regional Weather Roundup
Issued by NWS Wakefield, VA

Home | Current Version | Previous Version | Text Only | Print | Product List | Glossary On
Versions: 1 2 3 4 5 6 7 8 9 10 11 12 13 14 15 16 17 18 19 20 21 22 23 24 25 26 27 28 29 30 31 32 33 34 35 36 37 38 39 40 41 42 43 44 45 46 47 48 49 50
748
ASUS41 KAKQ 290115
RWRAKQ

REGIONAL WEATHER ROUNDUP
NATIONAL WEATHER SERVICE WAKEFIELD VA
900 PM EDT SUN AUG 28 2016

Note: "fair" indicates few or no clouds below 12,000 feet with no
significant weather and/or obstructions to visibility. * = Denotes
station may not report precipitation (e.g., rain,snow,etc.),
thunder or fog.

VAZ042-051-052>054-056-290200-
NORTHERN VIRGINIA

CITY           SKY/WX    TMP DP  RH WIND       PRES   REMARKS
WASH NATIONAL  PTCLDY    82  65  56 SE5       30.15S
DULLES         PTCLDY    78  62  57 SE5       30.16R
FORT BELVOIR   CLEAR     73  67  81 CALM      30.14S
QUANTICO       CLEAR     81  70  69 SE7       30.15
FREDERICKSBRG* CLEAR     75  69  81 CALM      30.14S
STAFFORD*      CLEAR     72  67  85 CALM      30.18S
WARRENTON      CLEAR     70  62  77 CALM      30.16R
CULPEPER*      CLEAR     71  69  92 CALM      30.17R
MANASSAS*      NOT AVBL
LEESBURG*      CLEAR     82  64  54 S6        30.16R
WINCHESTER     CLEAR     77  66  69 CALM      30.18R
FRONT ROYAL*   FAIR      73  66  78 CALM      30.16R
LURAY*         FAIR      73  68  83 CALM      30.18R
$$

VAZ048-049-060>072-079>083-290200-
CENTRAL AND SOUTH CENTRAL VIRGINIA

CITY           SKY/WX    TMP DP  RH WIND       PRES   REMARKS
RICHMOND       PTCLDY    76  67  73 E5        30.14R
CHESTERFIELD*  FAIR      79  57  47 E3        30.16R
PETERSBURG*    CLEAR     73  67  80 CALM      30.15R
HANOVER        PTCLDY    72  66  81 CALM      30.16R
TAPPAHANNOCK*  PTCLDY    71  71  97 CALM      30.15S
QUINTON*       FAIR      76  69  79 E7        30.14R
CHARLOTTSVILLE CLEAR     78  68  71 CALM      30.17R
GORDONSVILLE*  FAIR      72  72 100 CALM      30.16R
ORANGE*          N/A     72  72 100 CALM      30.18R
LOUISA*        CLEAR     73  72  94 CALM      30.15R
BUMPASS*       FAIR      71  67  87 CALM      30.15S
FARMVILLE*     CLOUDY    78  68  70 N3        30.14R
CREWE*         FAIR      74  70  87 CALM      30.15R
FORT PICKETT*  NOT AVBL
CHASE CITY*    FAIR      76  67  73 CALM      30.14S
CLARKSVILLE*   FAIR      77  68  73 CALM      30.12S
SOUTH HILL*    PTCLDY    76  68  76 CALM      30.20R
LAWRENCEVILLE* FAIR      77  69  76 CALM      30.14R
EMPORIA*       PTCLDY    75  68  78 E5        30.15R
$$

VAZ088>098-290200-
SOUTHEAST VIRGINIA

CITY           SKY/WX    TMP DP  RH WIND       PRES   REMARKS
NORFOLK        CLEAR     77  71  82 E10       30.14S
VIRGINIA BEACH MOCLDY    82  70  66 E5        30.13R
NORFOLK NAVAL  PTCLDY    78  70  76 E10       30.15S
WEST POINT*    PTCLDY    73  67  82 CALM      30.16R
SALUDA*        FAIR      78  70  76 E7        30.15R
NEWPORT NEWS   PTCLDY    75  69  81 E6        30.14S
LANGLEY AFB    PTCLDY    77  71  81 E12       30.13S
FORT EUSTIS    PTCLDY    78  69  74 E3        30.11S
WILLIAMSBURG*  PTCLDY    79  72  78 CALM      30.15S
HR EXEC AP*    FAIR      75  70  83 E7        30.16S
FRANKLIN*      PTCLDY    74  70  87 E3        30.14R
US460-WAKEFLD  CLOUDY    76  69  79 CALM      30.13S
$$

VAZ020-022-025-037-045-290200-
WEST CENTRAL AND SOUTHWEST VIRGINIA

CITY           SKY/WX    TMP DP  RH WIND       PRES   REMARKS
STAUNTON*      CLEAR     73  66  78 CALM      30.20S
WAYNESBORO*    FAIR      73  64  73 S7        30.21R
HOT SPRINGS VA CLEAR     71  63  76 SE5       30.32S
LYNCHBURG      PTCLDY    73  65  75 N3        30.19R
DANVILLE       PTCLDY    73  69  87 CALM      30.14R
SOUTH BOSTON*  FAIR      76  67  74 CALM      30.13S
MARTINSVILLE   CLEAR     69  67  94 CALM      30.20R
ROANOKE        PTCLDY    81  56  42 CALM      30.20R
BLACKSBURG     CLEAR     71  65  80 CALM      30.27R
DUBLIN*        CLEAR     74  62  67 CALM      30.25R
MARION*        CLEAR     74  66  75 CALM      30.28R
HILLSVILLE*    CLEAR     69  63  81 E5        30.26S
RICHLANDS*     FAIR      76  67  72 E5        30.25R
WISE*          PTCLDY    75  64  69 CALM      30.26S
ABINGDON*      CLEAR     79  66  63 E5        30.21R
$$

MDZ021>025-VAZ099-100-290200-
SOUTHERN MARYLAND AND THE DELMARVA PENINSULA

CITY           SKY/WX    TMP DP  RH WIND       PRES   REMARKS
PATUXENT RIVER CLEAR     79  62  56 SE12      30.14S
BAY BRIDGE APT CLEAR     79  63  57 SE6       30.15S
LEONARDTOWN    PTCLDY    77  63  61 E5        30.16F
DOVER          CLEAR     74  73  97 SE6       30.15S
GEORGETOWN     NOT AVBL
EASTON         CLEAR     75  68  78 SE6       30.19S
CAMBRIDGE      CLEAR     72  63  73 E6        30.15F
SALISBURY      CLEAR     71  66  84 CALM      30.16S
OCEAN CITY     CLEAR     76  68  76 E6        30.16F
WALLOPS ISLAND CLEAR     76  60  57 E10       30.16S
ACCOMACK*      PTCLDY    70  65  84 CALM      30.15S
$$

NCZ012>017-030>032-290200-
NORTH CENTRAL AND EASTERN NORTH CAROLINA

CITY           SKY/WX    TMP DP  RH WIND       PRES   REMARKS
ROANOKE RAPIDS FAIR      75  68  78 NE3       30.13S
RALEIGH        CLOUDY    81  66  60 E6        30.12R
ELIZABETH CITY CLEAR     77  74  90 N9        30.13R
AHOSKIE*       MOCLDY    75  70  84 NE3       30.13S
EDENTON*       CLEAR     78  73  84 NE5       30.13R
CURRITUCK*       N/A     79  75  87 NE10      30.14R
KILL DEVIL HLS PTCLDY    79  79 100 NE5       30.10S
MANTEO         MOCLDY    79  78  96 NE10G16   30.11S
CAPE HATTERAS  CLOUDY    79  76  90 NE3       30.09R
TARBORO*       FAIR      78  71  80 CALM      30.12S
GOLDSBORO      LGT RAIN  77  77 100 NE6       30.10R
WASHINGTON     PTCLDY    74  73  98 NE6       30.11R
GREENVILLE     CLOUDY    77  77 100 NE3       30.12R
NEW BERN       PTCLDY    76  74  93 N6        30.11R
WILMINGTON     CLOUDY    77  74  90 N3        30.08R
$$

VAZ048-290200-
ELSEWHERE

CITY           SKY/WX    TMP DP  RH WIND       PRES   REMARKS
HARRISBURG PA  PTCLDY    80  66  62 VRB3      30.15R
BALTIMORE      PTCLDY    78  66  66 SE6       30.15S
ANNAPOLIS      CLEAR     83  67  58 SE15      30.14S
ANDREWS AFB    CLEAR     76  66  72 E5        30.15R
PHILADELPHIA   PTCLDY    81  65  58 S8        30.16R
HENDERSON NC   CLOUDY    74  67  79 CALM      30.13S
GREENSBORO     MOCLDY    80  65  59 N5        30.15S
ROCKY MOUNT    LGT RAIN  78  74  87 NE5       30.12R
$$

VAZ100-290200-
MARINE

STATION/POSITION TIME  TEMP    WIND        PRES    WAVE   SWELL
                       AIR SEA DIR/SP/G            HT/PER HT/PER
                 (UTC) (F)     (DEG/KT/KT) (MB)    (FT/S) (FT/S)
BRANDYWINE LGT   0000   75     130/  9/  9   N/A
CAPE MAY NJ      0000   76 76  100/  7/  9 1021.1F
LEWES DE         0000   76 78  110/  4/  5 1021.4F
OCEAN-CITY-INLET 0000   77 76   80/  5/  9 1021.8S
WACHAPREAGUE VA  0000   78 83   70/ 11/ 14 1020.8F
THOMAS POINT MD  0100   80 83  130/ 12/ 13 1022.1R
GOOSES REEF MD   0000   83 83  120/ 14/ 16 1021.2F   1/ 2
COVE POINT MD    0000   82     130/ 12/ 15 1021.4S
SOLOMONS ISLAND  0000   83 85   90/ 11/ 13   N/A
PINEY POINT MD   0000          110/ 10/ 10   N/A
POTOMAC MD       0000   82 84  110/ 12/ 14 1019.7F   1/ 2
CAMBRIDGE MD     0000   80 83  100/  6/ 11 1020.2F
LEWISETTA VA     0000   81 85  150/  7/  9 1020.3F
RAPPAHANNOCK LGT 0000           60/ 12/ 13 1021.3F
STINGRAY PT      0000   80 84   30/ 14/ 16 1020.9F   1/ 3
YORK RVR RNG VA  0000   79      90/ 10/ 14 1020.1F
YORKTOWN VA      0000   80 84   90/ 14/ 16 1020.2S
JAMESTOWN VA     0000   81 86  100/  8/ 10   N/A
DOMINION TERM VA 0000   79      80/ 11/ 14 1020.6S
KIPTOPEKE VA     0000      81   70/  6/  9   N/A
CHES BAY BRIDGE  0000   78 77   30/ 13/ 14 1020.2F
CAPE HENRY VA    0000   78      50/ 15/ 17   N/A
WILLOUBY STN VA  0000   78      50/ 11/ 12   N/A
CAPE HENRY BUOY  0012      80                N/A     4/ 6   2/15
1ST LANDING BUOY 0000   78 78   70/ 12/ 14 1020.1R   2/ 3
CAPE CHARLES BUO 0026      80                N/A     4/ 6
OFFSHORE WE BUOY 0021      81                N/A     5/ 5
64NM E OF VA BCH 0050   81 81   80/ 14/ 16 1019.2R   5/ 6   3/ 6
DUCK PIER NC     0000   79 78   40/ 14/ 16 1019.1R
44100 DUCK FRF   0005      80                N/A     4/ 5
44056 DUCK FRF   0011      79                N/A     4/ 5
OREGON INLET NC  0000   80 81   40/  8/ 10 1019.0S
HATTERAS NC      0000   81 82   40/  7/ 10 1018.4S
DIAMOND SHLS NC  0050   81 84   50/  2/ 12 1018.9R   3/15   3/15
CAPE LOOKOUT NC  0100   82      50/ 14/ 15 1018.3R
$$




USA.gov is the U.S. government's official web portal to all federal, state and local government web resources and services.